Location: Niles Junction
(37.5763°N, 121.9714°W)
Time: 04:08:06
(UTC+00:00)

ATLAS 3B R/B - Pass Details

Date: 29 October 2020
Orbit: 1014 x 1181 km, 63.8° (Epoch: 23 November)

Event Time Altitude Azimuth Distance (km) Brightness Sun altitude
Exits shadow 12:44:57 39° 265° (W) 1,478 2.9 -21.4°
Maximum altitude 12:46:46 49° 308° (NW) 1,296 2.8 -21.1°
Drops below altitude 10° 12:53:10 10° 22° (NNE) 2,831 5.2 -19.8°
Sets 12:55:56 0° 28° (NNE) 3,804 5.9 -19.3°
